• Join FlightAware (Why Join?)
  • Login
  • US Flag 
06:41AM EDT


 

Airport Tracker/Info


-or-


 

Live Flight TrackerFlight Track Log ✈ N789EX ✈ 08-Aug-2014 ✈ KMWH - KBFI

Flight Track Log - Related Links

Times and Time Zones

All times are in EDT time to prevent confusion due to time zone crossing. See the N789EX flight status page for this flight to view local times or setup timezone preferences in your user account.

Time Position Orientation Groundspeed Altitude Reporting Facility
EDT Latitude Longitude Course Direction KTS MPH feet Rate Location/Type
08:24PM 47.2464 -119.3761 299° West 229 264 3,200  Level Seattle Center
08:25PM 47.2847 -119.4761 299° West 267 307 7,100 3,780 Climbing Seattle Center
08:26PM 47.3111 -119.5781 291° West 267 307 11,000 1,320 Climbing Seattle Center
08:31PM 47.5631 -120.3120 297° West 400 460 16,000 840 Climbing FlightAware ADS-B
08:31PM 47.5776 -120.3549 296° West 402 463 16,000  Level FlightAware ADS-B (KPAE)
08:32PM 47.6047 -120.4360 296° West 401 461 16,000  Level FlightAware ADS-B
08:32PM 47.6293 -120.5090 296° West 404 465 16,000  Level FlightAware ADS-B
08:33PM 47.6384 -120.5368 296° West 402 463 16,000  Level FlightAware ADS-B (KPAE)
08:33PM 47.6619 -120.6070 296° West 400 460 16,000  Level FlightAware ADS-B
08:33PM 47.6668 -120.6223 296° West 399 459 16,000  Level FlightAware ADS-B (KPAE)
08:34PM 47.6866 -120.6820 296° West 398 458 16,000  Level FlightAware ADS-B
08:34PM 47.7088 -120.7485 296° West 397 457 16,000  Level FlightAware ADS-B (KPAE)
08:34PM 47.7109 -120.7550 296° West 397 457 16,000  Level FlightAware ADS-B
08:35PM 47.7350 -120.8280 296° West 395 455 16,000  Level FlightAware ADS-B
08:35PM 47.7416 -120.8485 296° West 394 453 16,000  Level FlightAware ADS-B (KPAE)
08:35PM 47.7594 -120.9020 296° West 400 460 16,000  Level FlightAware ADS-B
08:35PM 47.7731 -120.9443 296° West 399 459 16,000  Level FlightAware ADS-B (KPAE)
08:36PM 47.7837 -120.9770 296° West 399 459 16,000  Level FlightAware ADS-B
08:36PM 47.8053 -121.0426 296° West 397 457 16,000  Level FlightAware ADS-B (KPAE)
08:36PM 47.8084 -121.0520 296° West 397 457 16,000  Level FlightAware ADS-B
08:37PM 47.8328 -121.1270 296° West 390 449 16,000  Level FlightAware ADS-B
08:37PM 47.8331 -121.1275 296° West 384 442 16,000  Level FlightAware ADS-B (CYWH)
08:37PM 47.8412 -121.1530 294° West 381 438 16,000 -900 Level FlightAware ADS-B
08:37PM 47.8463 -121.1730 290° West 377 434 15,800 -900 Descending FlightAware ADS-B
08:37PM 47.8522 -121.2020 285° West 368 423 15,700 -720 Descending FlightAware ADS-B
08:37PM 47.8545 -121.2170 282° West 372 428 15,600 -1,620 Descending FlightAware ADS-B
08:37PM 47.8572 -121.2400 279° West 373 429 15,300 -2,820 Descending FlightAware ADS-B
08:38PM 47.8608 -121.2929 275° West 375 432 14,200 -3,000 Descending FlightAware ADS-B (KPAE)
08:38PM 47.8623 -121.3180 275° West 376 433 13,800 -2,160 Descending FlightAware ADS-B
08:38PM 47.8667 -121.3844 276° West 365 420 12,800 -1,980 Descending FlightAware ADS-B (KPAE)
08:38PM 47.8673 -121.3940 276° West 365 420 12,800 -1,980 Level FlightAware ADS-B
08:39PM 47.8719 -121.4680 275° West 356 410 11,800 -1,740 Descending FlightAware ADS-B
08:39PM 47.8727 -121.4815 275° West 351 404 11,700 -600 Descending FlightAware ADS-B (KPAE)
08:39PM 47.8763 -121.5390 275° West 330 380 11,500 -600 Descending FlightAware ADS-B
08:40PM 47.8790 -121.5822 275° West 314 361 11,300 -600 Descending FlightAware ADS-B (KPAE)
08:40PM 47.8804 -121.6050 275° West 305 351 11,200 -420 Descending FlightAware ADS-B
08:40PM 47.8828 -121.6438 275° West 289 333 11,100 -480 Descending FlightAware ADS-B (CYWH)
08:40PM 47.8839 -121.6610 275° West 285 328 11,000 -480 Descending FlightAware ADS-B
08:40PM 47.8841 -121.6740 270° West 282 325 11,000 -540 Level FlightAware ADS-B
08:41PM 47.8834 -121.6840 263° West 282 325 10,900 -720 Descending FlightAware ADS-B
08:41PM 47.8825 -121.6910 257° West 282 325 10,900 -600 Level FlightAware ADS-B
08:41PM 47.8797 -121.7030 248° West 283 326 10,800 -540 Descending FlightAware ADS-B
08:41PM 47.8768 -121.7110 241° Southwest 283 326 10,800  Level FlightAware ADS-B
08:41PM 47.8719 -121.7220 234° Southwest 286 329 10,800  Level FlightAware ADS-B
08:41PM 47.8685 -121.7280 229° Southwest 289 333 10,800  Level FlightAware ADS-B
08:41PM 47.8679 -121.7288 223° Southwest 292 336 10,800  Level FlightAware ADS-B (KPAE)
08:41PM 47.8527 -121.7490 223° Southwest 293 337 10,800  Level FlightAware ADS-B
08:42PM 47.8321 -121.7775 223° Southwest 290 334 10,800 -420 Level FlightAware ADS-B (CYWH)
08:42PM 47.8229 -121.7900 222° Southwest 290 334 10,600 -1,560 Descending FlightAware ADS-B
08:42PM 47.8017 -121.8190 222° Southwest 290 334 10,000 -1,680 Descending FlightAware ADS-B
08:42PM 47.7889 -121.8360 222° Southwest 289 333 9,600 -1,380 Descending FlightAware ADS-B (KPAE)
08:43PM 47.7710 -121.8600 222° Southwest 287 330 9,300 -1,380 Descending FlightAware ADS-B
08:43PM 47.7561 -121.8800 222° Southwest 284 327 8,900 -2,040 Descending FlightAware ADS-B
08:43PM 47.7415 -121.9000 222° Southwest 277 319 8,300 -2,820 Descending FlightAware ADS-B
08:43PM 47.7274 -121.9190 222° Southwest 280 322 7,500 -3,420 Descending FlightAware ADS-B
08:43PM 47.7378 -121.9048 222° Southwest 281 323 7,400 -3,600 Descending FlightAware ADS-B (KPAE)
08:43PM 47.7231 -121.9250 225° Southwest 280 322 7,200 -2,580 Descending FlightAware ADS-B
08:44PM 47.7201 -121.9300 228° Southwest 280 322 7,100 -3,000 Descending FlightAware ADS-B
08:44PM 47.7244 -121.9230 233° Southwest 278 320 6,900 -4,500 Descending FlightAware ADS-B (KPAE)
08:44PM 47.7170 -121.9360 233° Southwest 278 320 6,800 -3,000 Descending FlightAware ADS-B
08:44PM 47.7139 -121.9440 243° Southwest 276 318 6,600 -2,280 Descending FlightAware ADS-B
08:44PM 47.7127 -121.9490 249° West 274 315 6,500 -2,580 Descending FlightAware ADS-B
08:44PM 47.7117 -121.9570 258° West 272 313 6,300 -3,780 Descending FlightAware ADS-B
08:44PM 47.7115 -121.9650 269° West 269 310 6,000 -3,480 Descending FlightAware ADS-B
08:44PM 47.7117 -121.9692 276° West 269 310 5,900 -1,500 Descending FlightAware ADS-B (KPAE)
08:44PM 47.7120 -121.9720 278° West 268 308 5,900 -3,000 Level FlightAware ADS-B
08:44PM 47.7129 -121.9770 284° West 267 307 5,700 -3,000 Descending FlightAware ADS-B
08:44PM 47.7147 -121.9850 290° West 267 307 5,500 -3,000 Descending FlightAware ADS-B
08:44PM 47.7151 -121.9861 292° West 267 307 5,400 -3,300 Descending FlightAware ADS-B (KPAE)
08:44PM 47.7204 -122.0030 296° West 269 310 4,900 -3,000 Descending FlightAware ADS-B
08:44PM 47.7261 -122.0199 297° West 270 311 4,400 -3,300 Descending FlightAware ADS-B (KPAE)
08:44PM 47.7267 -122.0220 297° West 270 311 4,300 -3,000 Descending FlightAware ADS-B
08:45PM 47.7330 -122.0400 298° West 267 307 3,800 -2,400 Descending FlightAware ADS-B
08:45PM 47.7354 -122.0466 297° West 265 305 3,700 -2,400 Descending FlightAware ADS-B (KPAE)
08:45PM 47.7382 -122.0550 294° West 264 304 3,400 -2,400 Descending FlightAware ADS-B
08:45PM 47.7380 -122.0548 286° West 261 300 3,300 -2,400 Descending FlightAware ADS-B (KPAE)
08:45PM 47.7402 -122.0650 284° West 261 300 3,200 -2,400 Descending FlightAware ADS-B
08:45PM 47.7408 -122.0710 279° West 259 298 3,100 -1,200 Descending FlightAware ADS-B
08:45PM 47.7413 -122.0830 271° West 256 295 3,000 -900 Descending FlightAware ADS-B
08:45PM 47.7410 -122.0970 267° West 251 289 2,900 -480 Descending FlightAware ADS-B
08:45PM 47.7398 -122.1240 266° West 241 277 2,800 -300 Descending FlightAware ADS-B
08:45PM 47.7396 -122.1292 266° West 238 274 2,800  Level FlightAware ADS-B (KPAE)
08:46PM 47.7386 -122.1500 266° West 233 268 2,800  Level FlightAware ADS-B
08:46PM 47.7373 -122.1740 266° West 231 266 2,800 300 Level FlightAware ADS-B
08:46PM 47.7371 -122.1801 266° West 231 266 2,900 360 Climbing FlightAware ADS-B (KPAE)
08:46PM 47.7362 -122.1980 266° West 230 265 2,900  Level FlightAware ADS-B
08:46PM 47.7362 -122.1980 266° West 230 265 2,900  Level FlightAware ADS-B (KPAE)
08:46PM 47.7349 -122.2250 266° West 230 265 2,900  Level FlightAware ADS-B
08:47PM 47.7340 -122.2434 266° West 233 268 2,900  Level FlightAware ADS-B (KPAE)
08:47PM 47.7337 -122.2490 266° West 233 268 2,900 -660 Level FlightAware ADS-B
08:47PM 47.7318 -122.2880 266° West 232 267 2,600 -840 Descending FlightAware ADS-B
08:47PM 47.7315 -122.2955 266° West 233 268 2,500 -1,080 Descending FlightAware ADS-B (KPAE)
08:47PM 47.7306 -122.3150 266° West 233 268 2,300 -1,200 Descending FlightAware ADS-B
08:48PM 47.7303 -122.3201 261° West 231 266 2,100 -780 Descending FlightAware ADS-B (KPAE)
08:48PM 47.7270 -122.3400 265° West 232 267 2,100 -300 Level FlightAware ADS-B
08:48PM 47.7224 -122.3521 238° Southwest 221 254 2,000 -420 Descending FlightAware ADS-B (KPAE)
08:48PM 47.7190 -122.3600 237° Southwest 219 252 2,000 480 Level FlightAware ADS-B
08:48PM 47.7142 -122.3700 236° Southwest 211 243 2,100 180 Climbing FlightAware ADS-B
08:48PM 47.7040 -122.3928 236° Southwest 197 227 2,100  Level FlightAware ADS-B (KPAE)
08:48PM 47.7030 -122.3950 236° Southwest 209 241 2,100  Level FlightAware ADS-B
08:49PM 47.6938 -122.4143 230° Southwest 188 216 2,100 -180 Level FlightAware ADS-B (KPAE)
08:49PM 47.6802 -122.4245 178° South 189 217 2,000 -300 Descending FlightAware ADS-B (KPAE)
08:49PM 47.6752 -122.4240 224° Southwest 189 217 2,000  Level FlightAware ADS-B
08:49PM 47.6713 -122.4220 167° South 190 219 2,000  Level FlightAware ADS-B
08:49PM 47.6613 -122.4150 150° Southeast 190 219 2,000  Level FlightAware ADS-B
08:50PM 47.6508 -122.4053 150° Southeast 188 216 2,000  Level FlightAware ADS-B (KPAE)
08:50PM 47.6498 -122.4040 150° Southeast 190 219 2,000 -480 Level FlightAware ADS-B
08:50PM 47.6405 -122.3960 149° Southeast 175 201 1,900 -420 Descending FlightAware ADS-B
08:50PM 47.6287 -122.3860 149° Southeast 167 192 1,800 -480 Descending FlightAware ADS-B
08:50PM 47.6214 -122.3797 150° Southeast 163 188 1,700 -420 Descending FlightAware ADS-B (KPAE)
08:50PM 47.6182 -122.3770 150° Southeast 161 185 1,700 -900 Level FlightAware ADS-B
08:51PM 47.6100 -122.3700 150° Southeast 156 180 1,400 -1,080 Descending FlightAware ADS-B (KPAE)
08:51PM 47.6076 -122.3680 150° Southeast 161 185 1,400 -960 Level FlightAware ADS-B
08:51PM 47.6050 -122.3658 151° Southeast 156 180 1,100 -660 Descending FlightAware ADS-B (KPAE)
08:52PM 47.5581 -122.3269 151° Southeast 155 178 500 -660 Descending Seattle Center
08:52PM 47.5461 -122.3181 153° Southeast 167 192 200 -420 Descending Seattle Center
08:53PM 47.5200 -122.2947 149° Southeast 155 178 100 -180 Descending Seattle Center
08:55PM 47.5167 -122.3000 163° South  Level FlightAware Approximate